Location: Berlijn
(52.5200°N, 13.4050°E)
Time: 18:10:32
(UTC+02:00)

Envisat - Pass Details

Date: 28 September 2021
Orbit: 764 x 766 km, 98.2° (Epoch: 19 October)

Event Time Altitude Azimuth Distance (km) Brightness Sun altitude
Rises 05:43:10 0° 20° (NNE) 3,245 6.7 -12.8°
Reaches altitude 10° 05:45:39 10° 28° (NNE) 2,314 6.1 -12.4°
Maximum altitude 05:50:22 37° 96° (E) 1,181 4.7 -11.7°
Drops below altitude 10° 05:55:03 10° 163° (SSE) 2,297 5.5 -11.0°
Sets 05:57:31 0° 172° (S) 3,218 6.2 -10.7°
